Skip Page Navigation
NASA JPL Caltech
NASA Logo - Jet Propulsion Laboratory + View the NASA Portal
+ Center for Near-Earth Object Studies
JPL Home Earth Solar System Stars & Galaxies Technology
JPL Solar System Dynamics
BODIES ORBITS EPHEMERIDES TOOLS PHYSICAL DATA DISCOVERY FAQ SITE MAP
IMPORTANT: The SSD Announcement email list is now available. Major changes are coming in the near future, including possible hostname and/or URL changes. To be notified of such changes, subscribe to this email list.

Please visit this page for more details.


JPL Small-Body Database Browser
Search: [ help ]  
27566 (2000 LX32)
Classification: Main-belt Asteroid          SPK-ID: 2027566
Ephemeris | Orbit Diagram | Orbital Elements | Mission Design | Physical Parameters | Discovery Circumstances | Close-Approach Data ]

[ show orbit diagram ]
Orbital Elements at Epoch 2458600.5 (2019-Apr-27.0) TDB
Reference: JPL 28 (heliocentric ecliptic J2000)
 Element Value Uncertainty (1-sigma)   Units 
e .155247887659603 3.7094e-08  
a 2.778541872881406 1.6393e-08 au
q 2.34717911634281 1.0239e-07 au
i 9.025628788514849 4.6654e-06 deg
node 182.1417915964396 2.4452e-05 deg
peri 229.5666283421005 2.8165e-05 deg
M 227.2843769291023 1.5554e-05 deg
tp 2459224.153545212078
(2021-Jan-09.65354521)
7.5632e-05 TDB
period 1691.701934416646
4.63
1.4971e-05
4.099e-08
d
yr
n .2128034452618509 1.8832e-09 deg/d
Q 3.209904629420002 1.8937e-08 au
  Orbit Determination Parameters
   # obs. used (total)      1386  
   data-arc span      7529 days (20.61 yr)  
   first obs. used      1997-11-30  
   last obs. used      2018-07-12  
   planetary ephem.      DE431  
   SB-pert. ephem.      SB431-N16  
   condition code      0  
   norm. resid. RMS      .53201  
   source      ORB  
   producer      Otto Matic  
   solution date      2018-Oct-03 18:35:07  

Additional Information
 Earth MOID = 1.36805 au 
 Jupiter MOID = 2.22253 au 
 T_jup = 3.299 
[ show covariance matrix ]

Ephemeris | Orbit Diagram | Orbital Elements | Mission Design | Physical Parameters | Discovery Circumstances | Close-Approach Data ]

Physical Parameter Table
Parameter Symbol Value Units Sigma Reference Notes
absolute magnitude H 13.7   n/a MPO435955  
diameter diameter 4.616 km 1.601 urn:nasa:pds:neowise_diameters_albedos::2.0[mainbelt] (http://adsabs.harvard.edu/abs/2011ApJ...741...68M)  
geometric albedo albedo 0.330   0.206 urn:nasa:pds:neowise_diameters_albedos::2.0[mainbelt] (http://adsabs.harvard.edu/abs/2011ApJ...741...68M)  

27566 (2000 LX32)          Discovered 2000-Jun-04 by LINEAR at Socorro
Reference: 20010804/Numbers.arcLast Updated: 2004-04-19

[ show close-approach data ]
Alternate Designations
 2000 LX32 = 1999 FO45 
Ephemeris | Orbit Diagram | Orbital Elements | Mission Design | Physical Parameters | Discovery Circumstances | Close-Approach Data ]
ABOUT SSD CREDITS/AWARDS PRIVACY/COPYRIGHT GLOSSARY LINKS
FirstGov 2019-Dec-08 21:26 UT
(server date/time)  
NASA Home Page
Site Manager:   Ryan S. Park
Webmaster  Alan B. Chamberlin